Location: Martz Observatory
(42.0083°N, 79.0667°W)
Time: 22:05:49
(UTC-04:00)

Cosmos 1953 Rocket - Pass Details

Date: 26 May 2018
Orbit: 604 x 636 km, 82.5° (Epoch: 18 August)

Event Time Altitude Azimuth Distance (km) Brightness Sun altitude
Exits shadow 01:43:25 58° 339° (NNW) 709 4.0 -26.5°
Drops below altitude 10° 01:47:01 10° 4° (N) 1,960 7.1 -26.4°
Sets 01:49:15 0° 7° (N) 2,868 8.3 -26.3°
